Regional Weather Roundup
Issued by NWS

Home | Current Version | Previous Version | Graphics & Text | Print | Product List | Glossary On
Versions: 1 2 3 4 5 6 7 8 9 10 11 12 13 14 15 16 17 18 19 20 21 22 23 24 25 26 27 28 29 30 31 32 33 34 35 36 37 38 39 40 41 42 43 44 45 46 47 48 49 50
000
ASUS43 KDMX 071907
RWRIA

WEATHER ROUNDUP FOR IOWA
NATIONAL WEATHER SERVICE DES MOINES IA
200 PM CDT TUE JUL 07 2015

NOTE: "FAIR" INDICATES FEW OR NO CLOUDS BELOW 12,000 FEET WITH NO
SIGNIFICANT WEATHER AND/OR OBSTRUCTIONS TO VISIBILITY.

* - THESE STATIONS ARE NOT NWS STATIONS...THUS NOT UNDER NWS
QUALITY CONTROL.  THEY ALSO DO NOT REPORT WEATHER SUCH
AS PRECIPITATION OR FOG.

IAZ001>003-012>014-020>022-031>034-043>046-072000-
   NORTHWEST IOWA

CITY           SKY/WX    TMP DP  RH WIND       PRES   REMARKS
CARROLL *      SUNNY     68  50  52 N12       30.14S
CHEROKEE *     SUNNY     66  48  52 N9        30.16F
DENISON *      SUNNY     66  52  59 NE10G20   30.13F
LE MARS *      SUNNY     66  50  55 N9G16     30.17F
ORANGE CITY *  SUNNY     64  46  52 E6        30.17F
SHELDON *      SUNNY     66  50  55 N10       30.17F
SIOUX CITY     SUNNY     70  48  45 NE13      30.15F
SPENCER        SUNNY     67  46  47 NE10G20   30.17F
STORM LAKE *     N/A     66  50  55 N14       30.16F
$$

IAZ055>058-069>071-079>083-090>094-072000-
   SOUTHWEST IOWA

CITY           SKY/WX    TMP DP  RH WIND       PRES   REMARKS
ATLANTIC *     MOSUNNY   68  52  56 N10G16    30.13F
AUDUBON *      SUNNY     70  54  56 NE8       30.15S
CLARINDA *     SUNNY     72  57  60 NE8G18    30.13S
COUNCIL BLFS * SUNNY     68  52  56 N12       30.14F
CRESTON *      SUNNY     68  52  56 NE13G22   30.12R
HARLAN  *      MOSUNNY   68  54  60 NE13      30.17F
LAMONI         PTSUNNY   71  57  61 NE12      30.09F
RED OAK *      SUNNY     72  54  53 NE12G18   30.13S
SHENANDOAH *   SUNNY     72  52  49 NE12G23   30.13S
$$

IAZ047>049-059>061-072>074-084-072000-
   CENTRAL IOWA

CITY           SKY/WX    TMP DP  RH WIND       PRES   REMARKS
AMES           PTSUNNY   69  51  52 N10       30.12S
ANKENY *       PTSUNNY   68  52  56 N10       30.11S
CHARITON *     PTSUNNY   68  55  64 NE8G15    30.09S
DES MOINES     MOSUNNY   71  50  47 VRB6      30.10S
GRINNELL*      PTSUNNY   66  54  63 N6        30.10S
KNOXVILLE *    MOSUNNY   70  52  52 N7G17     30.08S
MARSHALLTOWN   PTSUNNY   69  52  54 N9G18     30.10S
PELLA *        PTSUNNY   70  59  68 N8        30.10S
PERRY *          N/A     68  50  52 NE9G16    30.13S
$$

IAZ004>006-015-016-023>025-035-036-072000-
   NORTH CENTRAL IOWA

CITY           SKY/WX    TMP DP  RH WIND       PRES   REMARKS
ALGONA *       MOSUNNY   66  50  55 N9G17     30.16S
CLARION *      MOSUNNY   66  50  55 N9        30.14S
ESTHERVILLE    MOSUNNY   64  49  57 MISG      30.17S
FORT DODGE *   SUNNY     66  52  59 N10G17    30.15F
MASON CITY     PTSUNNY   66  50  56 N13       30.15F
FOREST CITY *  MOSUNNY   64  48  55 N7        30.15S
IOWA FALLS *     N/A     66  48  52 NE12      30.13F
$$

IAZ007>011-017>019-026>030-037>042-050>054-066-072000-
   NORTHEAST IOWA

CITY           SKY/WX    TMP DP  RH WIND       PRES   REMARKS
CEDAR RAPIDS   MOSUNNY   70  55  59 N12       30.07S
CHARLES CITY * PTSUNNY   64  50  59 N14       30.13S
CLINTON *      PTSUNNY   70  54  56 N15       30.07S
DECORAH *        N/A    N/A N/A N/A MISG        N/A
DUBUQUE        CLOUDY    67  53  61 N10       30.07F
MONTICELLO *   PTSUNNY   70  57  64 VRB6G13   30.07S
OELWEIN *      MOSUNNY   66  50  55 NE12G20   30.11S
WATERLOO       PTSUNNY   68  49  50 N16G22    30.09F
$$

IAZ064-065-067-068-078-072000-
   EAST CENTRAL IOWA

CITY           SKY/WX    TMP DP  RH WIND       PRES   REMARKS
DAVENPORT      PTSUNNY   69  55  60 N10       30.05S HAZE
IOWA CITY      PTSUNNY   72  57  59 NE9       30.07S
MT. PLEASANT * MOSUNNY   75  50  41 N13       30.05S HAZE
MUSCATINE *    MOSUNNY   72  57  60 N13G18    30.06S
QUAD CITIES    MOSUNNY   72  55  55 N12       30.03S HAZE
$$

IAZ062-063-075>077-085>089-095>099-072000-
   SOUTHEAST IOWA

CITY           SKY/WX    TMP DP  RH WIND       PRES   REMARKS
BURLINGTON     PTSUNNY   73  58  59 N9G22     30.04S HAZE
FAIRFIELD *    MOSUNNY   72  55  56 N10G17    30.06S
KEOKUK *       MOSUNNY   73  59  60 NE9G16    30.04R
OSKALOOSA *    PTSUNNY   70  55  60 N7        30.08S
CENTERVILLE *  SUNNY     70  59  68 N15       30.09S
OTTUMWA        PTSUNNY   71  58  63 NE13      30.06S
WASHINGTON *   CLOUDY    70  57  64 N10       30.07S
$$

ABBREVIATIONS USED IN REMARKS
   TC - TEMPERATURES IN CELSIUS
  WCI - WIND CHILL INDEX
   HX - HEAT INDEX
  VSB - VISIBILITY
$$




USA.gov is the U.S. government's official web portal to all federal, state and local government web resources and services.